This is the latest recevied weather packets stored in our database for station/object DG6HD-13. If no packets are shown the sender has not sent any weather packets the latest 1 day(s).
| Time | Temp. | Humidity | Pressure | Rain* | Wind** | Luminosity | Snow |
|---|---|---|---|---|---|---|---|
| 1778043564 | 7.22° C | 54% | 1008.7 hPa | - | - | - | - |
| 1778042663 | 7.78° C | 53% | 1008.7 hPa | - | - | - | - |
| 1778041762 | 8.33° C | 51% | 1008.8 hPa | - | - | - | - |
| 1778040861 | 7.22° C | 54% | 1008.8 hPa | - | - | - | - |
| 1778039060 | 7.22° C | 54% | 1008.9 hPa | - | - | - | - |
| 1778038159 | 7.22° C | 54% | 1008.9 hPa | - | - | - | - |
| 1778037258 | 7.22° C | 53% | 1009 hPa | - | - | - | - |
| 1778035456 | 7.22° C | 54% | 1009.1 hPa | - | - | - | - |
| 1778033655 | 7.22° C | 54% | 1009.2 hPa | - | - | - | - |
| 1778032754 | 7.22° C | 53% | 1009.2 hPa | - | - | - | - |
| 1778031853 | 7.22° C | 54% | 1009.2 hPa | - | - | - | - |
| 1778030952 | 8.33° C | 52% | 1009.2 hPa | - | - | - | - |
| 1778030051 | 7.22° C | 55% | 1009.5 hPa | - | - | - | - |
| 1778027349 | 7.78° C | 54% | 1009.6 hPa | - | - | - | - |
| 1778026448 | 7.78° C | 54% | 1009.7 hPa | - | - | - | - |
| 1778022845 | 8.33° C | 55% | 1010.2 hPa | - | - | - | - |
| 1778017440 | 9.44° C | 56% | 1010.6 hPa | - | - | - | - |
| 1778016539 | 9.44° C | 56% | 1010.9 hPa | - | - | - | - |
| 1778015638 | 9.44° C | 56% | 1010.8 hPa | - | - | - | - |
| 1778012035 | 10° C | 57% | 1010.6 hPa | - | - | - | - |
| 1778011134 | 10° C | 57% | 1010.5 hPa | - | - | - | - |
* Rain since midnight (hover to see other rain measurements)
** Current wind speed in m/s (hover to see current wind gust speed)